Flag for Israel Weather past 2 weeks in Jerusalem, Israel

Now
73 °F

Clear.


Feels Like: 76 °F
Forecast: 59 / 73 °F
Wind: 5 mph from Southeast

Location: Ben Gurion International Airport

Current Time: Oct 23, 2014 at 9:36:04 PM

Latest Report: Oct 23, 2014 at 8:50 PM


Visibility: 10 mi

Pressure: 30.04 "Hg

Humidity: 61%

Dew point: 59 °F

Location of JerusalemLocation

Historic Weather in Jerusalem — Graph

°F

Jerusalem temperature yesterday

Maximum temperature yesterday: 82 °F (at 11:20 AM)
Minimum temperature yesterday: 59 °F (at 4:50 AM)
Average temperature yesterday: 70 °F

Past Weeks' High & Low Weather Summary

 TemperatureHumidityPressure
High88 °F (Oct 10, 12:20 PM)89% (Oct 10, 11:20 PM)30.12 "Hg (Oct 10, 11:20 PM)
Low59 °F (Oct 22, 4:50 AM)32% (Oct 22, 11:20 AM)29.74 "Hg (Oct 19, 1:50 PM)
Average74 °F67%29.96 "Hg
* Reported Oct 8 8:20 PM — Oct 23 8:20 PM, Jerusalem, Weather by CustomWeather, © 2014

Note: Actual official high and low records may vary slightly from our data, if they occured in-between our weather recording intervals... More about our weather records

Advertising

Jerusalem weather history for previous 24 hours

 ConditionsComfort  
Time TempWeatherWind HumidityBarometerVisibility
8:20 PM
Oct 23
72 °FClear.5 mph65%30.04 "Hg10 mi
7:50 PM73 °FClear.3 mph61%30.04 "Hg10 mi
7:20 PM73 °FClear.2 mph61%30.04 "Hg10 mi
6:50 PM73 °FClear.3 mph61%30.01 "Hg10 mi
6:20 PM75 °FClear.7 mph57%30.01 "Hg10 mi
5:50 PM75 °FSunny.8 mph57%30.01 "Hg10 mi
5:20 PM77 °FPassing clouds.12 mph54%29.98 "HgN/A
4:50 PM77 °FPassing clouds.12 mph57%29.98 "HgN/A
4:20 PM79 °FPassing clouds.14 mph54%29.98 "HgN/A
3:50 PM79 °FPassing clouds.13 mph54%29.98 "HgN/A
3:20 PM79 °FPassing clouds.14 mph51%29.98 "HgN/A
2:50 PM81 °FPassing clouds.13 mph48%29.98 "HgN/A
2:20 PM81 °FPassing clouds.13 mph45%29.98 "HgN/A
1:50 PM79 °FPassing clouds.12 mph48%29.98 "HgN/A
1:20 PM81 °FScattered clouds.13 mph51%29.98 "HgN/A
12:50 PM79 °FScattered clouds.13 mph54%30.01 "HgN/A
12:20 PM79 °FScattered clouds.12 mph58%30.01 "HgN/A
11:50 AM79 °FScattered clouds.12 mph54%30.01 "HgN/A
11:20 AM79 °FScattered clouds.8 mph54%30.01 "HgN/A
10:50 AM79 °FPassing clouds.6 mph54%30.01 "HgN/A
10:20 AM77 °FPassing clouds.7 mph61%30.01 "HgN/A
9:50 AM75 °FPassing clouds.8 mph61%30.01 "HgN/A
9:20 AM73 °FPassing clouds.8 mph65%30.01 "HgN/A
8:50 AM72 °FPassing clouds.8 mph65%30.01 "HgN/A
8:20 AM70 °FScattered clouds.5 mph64%30.01 "HgN/A
7:50 AM68 °FScattered clouds.1 mph64%29.98 "HgN/A
7:20 AM66 °FPassing clouds.2 mph64%29.98 "HgN/A
6:50 AM66 °FSunny.6 mph64%29.98 "Hg10 mi
6:20 AM66 °FClear.2 mph64%29.98 "Hg10 mi
5:50 AM66 °FClear.3 mph64%29.98 "Hg10 mi
5:20 AM66 °FClear.5 mph64%29.95 "Hg10 mi
4:50 AM66 °FClear.5 mph68%29.95 "Hg10 mi
4:20 AM66 °FClear.2 mph64%29.95 "Hg10 mi
3:50 AM66 °FClear.5 mph64%29.95 "Hg10 mi
3:20 AM66 °FClear.3 mph68%29.95 "Hg10 mi
2:50 AM66 °FClear.2 mph64%29.95 "Hg10 mi
2:20 AM66 °FClear.6 mph64%29.95 "Hg10 mi
1:50 AM66 °FClear.3 mph68%29.95 "Hg10 mi
1:20 AM66 °FClear.1 mph68%29.98 "Hg10 mi
12:50 AM66 °FClear.6 mph68%29.98 "Hg10 mi
12:20 AM68 °FClear.1 mph60%29.98 "Hg10 mi
11:50 PM
Oct 22
68 °FClear.5 mph64%29.98 "Hg10 mi
11:20 PM68 °FClear.3 mph64%29.98 "Hg10 mi
10:50 PM68 °FClear.3 mph64%29.98 "Hg10 mi
10:20 PM68 °FClear.3 mph64%29.98 "Hg10 mi
9:50 PM68 °FClear.1 mph64%29.98 "Hg10 mi
9:20 PM73 °FClear.2 mph53%29.98 "Hg10 mi
Weather by CustomWeather, © 2014

See weather overviewHow to use our weather pages